[[{"header":{"parameterUnit":"m.s-1","parameterCategory":1,"la1":30.2991,"la2":30.254,"lo1":-89.0895,"lo2":-89.0444,"dy":0.0017,"dx":0.0017,"nx":28,"ny":28,"refTime":"2024-08-03T21:00:00:Z","depth":0,"parameterNumber":2,"parameterNumberName":"U-component_of_WINDS"},"data":[0,0,0,0,0,0,0,0,0,0,0,0,0,0,0,0,0,0,0,0,0,0,0,0,0,0,0,0,0,0,0,0,0,0,0,0,0,0,0,0,0,0,0,0,0,0,0,0,0,0,0,0,0,0,0,0,0,0,-0.0413,-0.0412,0,-0.0353,-0.0352,-0.0352,-0.0329,-0.0329,-0.0329,-0.0329,-0.0261,-0.0259,-0.0257,0,0,0,0,0,0,0,0,0,0,0,0,0,-0.0501,-0.0499,-0.0413,-0.0412,-0.0412,-0.0353,-0.0352,-0.0352,-0.0329,-0.0329,-0.0329,-0.0329,-0.0262,-0.0259,-0.0257,0,0,0,0,0,0,0,0,0,0,0,0,0,-0.0454,-0.0499,-0.0413,-0.0393,-0.0391,-0.0353,-0.0352,-0.0351,-0.0329,-0.0329,-0.0329,-0.033,-0.0262,-0.026,-0.0257,-0.0232,0,0,-0.0247,-0.0246,0,0,0,0,0,0,0,0,-0.0457,-0.0451,-0.0397,-0.0395,-0.0392,-0.0349,-0.0358,-0.0311,-0.0329,-0.0352,-0.0329,-0.033,-0.029,-0.0284,-0.0272,-0.0229,-0.0226,-0.0247,-0.0245,-0.0244,-0.0243,0,0,0,0,0,0,0,-0.046,-0.0453,-0.0389,-0.0396,-0.0393,-0.0385,-0.0379,-0.0349,-0.032,-0.035,-0.0348,-0.0342,-0.0288,-0.0275,-0.027,-0.0225,-0.0247,-0.0245,-0.0243,-0.0242,-0.0158,-0.0157,0,0,0,0,0,0,-0.0467,-0.0456,-0.0391,-0.0387,-0.0426,-0.0383,-0.0376,-0.0362,-0.032,-0.0314,-0.0342,-0.0341,-0.028,-0.0274,-0.0268,-0.0236,-0.0244,-0.0241,-0.024,-0.0158,-0.0158,-0.0157,0,0,0,0,0,0,-0.0469,-0.0462,-0.0393,-0.0421,-0.0412,-0.0382,-0.0366,-0.0361,-0.0348,-0.0314,-0.0308,-0.0334,-0.028,-0.0272,-0.0242,-0.0233,-0.024,-0.0237,-0.0159,-0.0158,-0.0157,-0.0172,0,0,0,0,0,0,-0.0472,-0.0463,-0.0455,-0.0421,-0.0411,-0.037,-0.0366,-0.036,-0.0344,-0.0342,-0.0305,-0.0299,-0.028,-0.0246,-0.0239,-0.0229,-0.0235,-0.0159,-0.0158,-0.0157,-0.0173,-0.0172,-0.0172,0,0,0,0,0,-0.0475,-0.046,-0.0455,-0.0447,-0.04,-0.037,-0.0363,-0.0343,-0.0343,-0.0334,-0.0312,-0.03,-0.0236,-0.0243,-0.0234,-0.0224,-0.0159,-0.0158,-0.0158,-0.0173,-0.0172,-0.0172,0,0,0,0,0,0,-0.0491,-0.0455,-0.0449,-0.0423,-0.04,-0.0366,-0.0354,-0.0344,-0.0319,-0.0318,-0.0292,-0.0284,-0.0255,-0.0236,-0.0245,-0.0198,-0.0197,-0.0194,-0.0211,-0.0211,-0.0211,-0.0215,-0.0232,0,0,0,0,0,-0.0492,-0.0472,-0.0441,-0.0421,-0.041,-0.0384,-0.037,-0.0357,-0.0331,-0.032,-0.0296,-0.0269,-0.0243,-0.0226,-0.02,-0.017,-0.0161,-0.0158,-0.0158,-0.0159,-0.0156,-0.0138,-0.0136,-0.0154,-0.0154,-0.0154,0,0,-0.0492,-0.0471,-0.0459,-0.0424,-0.0404,-0.0382,-0.0376,-0.0353,-0.0336,-0.0316,-0.0286,-0.0267,-0.0236,-0.0205,-0.0191,-0.0189,-0.0149,-0.0157,-0.0158,-0.0155,-0.0137,-0.0135,-0.0133,-0.0153,-0.0153,-0.0153,0,0,-0.0482,-0.0465,-0.0446,-0.0427,-0.0399,-0.0382,-0.0377,-0.0345,-0.0332,-0.0303,-0.0287,-0.0265,-0.022,-0.0198,-0.0181,-0.0163,-0.0151,-0.0155,-0.0154,-0.0137,-0.0135,-0.0134,-0.0126,-0.0124,-0.0153,-0.0153,-0.0153,0,-0.0486,-0.0455,-0.0437,-0.0415,-0.0399,-0.0383,-0.0362,-0.0344,-0.0307,-0.0296,-0.0295,-0.0239,-0.0216,-0.018,-0.0176,-0.0163,-0.0155,-0.0159,-0.0138,-0.0136,-0.0134,-0.0127,-0.0124,-0.0154,-0.0154,-0.0154,-0.0154,0,-0.046,-0.0439,-0.0427,-0.0395,-0.0377,-0.0356,-0.0333,-0.0317,-0.0305,-0.0287,-0.0256,-0.0229,-0.0197,-0.0187,-0.0174,-0.0149,-0.0149,-0.0143,-0.0141,-0.0134,-0.0126,-0.0123,-0.0155,-0.0155,-0.0154,-0.0154,0,0,-0.0458,-0.0417,-0.0412,-0.0397,-0.0365,-0.0347,-0.0324,-0.0295,-0.0281,-0.0257,-0.0236,-0.0199,-0.0194,-0.0174,-0.0159,-0.0144,-0.013,-0.014,-0.0139,-0.0138,-0.0098,-0.0102,-0.0099,-0.0122,-0.0122,-0.0121,-0.01,0,-0.0443,-0.0404,-0.0387,-0.0355,-0.0334,-0.0318,-0.0298,-0.0275,-0.0258,-0.0236,-0.0215,-0.0189,-0.0185,-0.0173,-0.0158,-0.0135,-0.0121,-0.0136,-0.01,-0.0099,-0.0108,-0.0095,-0.0099,-0.008,-0.0097,-0.0097,-0.0097,0,-0.042,-0.0398,-0.0365,-0.0335,-0.0325,-0.0308,-0.0279,-0.0259,-0.0232,-0.022,-0.0199,-0.0185,-0.0158,-0.0159,-0.012,-0.0131,-0.0115,-0.0102,-0.01,-0.0095,-0.0097,-0.0088,-0.0074,-0.0071,-0.0092,-0.0092,-0.0093,0,-0.042,-0.0382,-0.0357,-0.0345,-0.0309,-0.0297,-0.0281,-0.0255,-0.0238,-0.0212,-0.0201,-0.0172,-0.0155,-0.0132,-0.0109,-0.0112,-0.0072,-0.0072,-0.006,-0.006,-0.0051,-0.0052,-0.0033,-0.0043,-0.0043,-0.0043,-0.0043,0,-0.0404,-0.0384,-0.0357,-0.0341,-0.0318,-0.0297,-0.0274,-0.0256,-0.0233,-0.0212,-0.0196,-0.0176,-0.0148,-0.0124,-0.0105,-0.0075,-0.0068,-0.0056,-0.0051,-0.0057,-0.0059,-0.0045,-0.0045,-0.0042,-0.0043,-0.0043,-0.0043,0,-0.04,-0.0381,-0.0353,-0.0322,-0.0314,-0.0298,-0.0271,-0.0254,-0.0236,-0.021,-0.0202,-0.0174,-0.0145,-0.012,-0.0081,-0.0069,-0.0037,-0.0032,-0.0047,-0.0045,-0.0034,-0.0035,-0.0005,0.0001,-0.0015,-0.0014,-0.0014,0,-0.0391,-0.0376,-0.0344,-0.033,-0.0316,-0.0293,-0.0277,-0.0256,-0.0239,-0.0207,-0.0193,-0.0164,-0.0139,-0.0092,-0.0066,-0.0036,-0.0029,-0.0021,-0.0024,-0.003,-0.0027,-0.0028,-0.0026,-0.002,-0.002,-0.002,-0.002,0,-0.0376,-0.0368,-0.0346,-0.0321,-0.0303,-0.0281,-0.0259,-0.0248,-0.0222,-0.0203,-0.0175,-0.0156,-0.0117,-0.0087,-0.0054,-0.0035,-0.0022,-0.002,-0.0015,-0.002,-0.0029,-0.0023,-0.0045,-0.002,-0.002,-0.002,-0.002,-0.002,-0.0368,-0.0354,-0.033,-0.0306,-0.0287,-0.0267,-0.025,-0.0231,-0.0208,-0.0176,-0.0164,-0.0135,-0.0106,-0.0061,-0.0042,-0.0017,-0.0015,-0.0009,-0.0007,-0.0005,-0.0006,-0.0035,-0.0011,-0.0011,-0.0011,-0.0011,-0.0011,0,-0.0352,-0.0336,-0.0314,-0.0285,-0.0266,-0.0259,-0.0234,-0.0217,-0.0192,-0.0168,-0.0144,-0.0111,-0.0081,-0.0054,-0.0023,-0.0008,-0.0001,0.0,0.0,0.0005,-0.001,-0.0016,-0.0006,-0.0006,-0.0006,-0.0006,-0.0006,-0.0006,-0.0341,-0.0316,-0.0304,-0.0269,-0.0252,-0.0225,-0.0211,-0.0191,-0.0172,-0.0136,-0.0113,-0.0096,-0.007,-0.0037,-0.0009,-0.0001,0.0011,0.001,0.002,0.0006,0.0006,0.0005,-0.0001,0.0012,0.0012,0.0032,0.0032,0.0032]},{"header":{"parameterUnit":"m.s-1","parameterCategory":1,"la1":30.2991,"la2":30.254,"lo1":-89.0895,"lo2":-89.0444,"dy":0.0017,"dx":0.0017,"nx":28,"ny":28,"refTime":"2024-08-03T21:00:00:Z","depth":0,"parameterNumber":3,"parameterNumberName":"V-component_of_WINDS"},"data":[0,0,0,0,0,0,0,0,0,0,0,0,0,0,0,0,0,0,0,0,0,0,0,0,0,0,0,0,0,0,0,0,0,0,0,0,0,0,0,0,0,0,0,0,0,0,0,0,0,0,0,0,0,0,0,0,0,0,1.4997,1.4997,0,1.4989,1.4988,1.4988,1.497,1.4969,1.4969,1.4968,1.4957,1.4957,1.4957,0,0,0,0,0,0,0,0,0,0,0,0,0,1.4992,1.4992,1.4997,1.4997,1.4997,1.4989,1.4988,1.4988,1.497,1.4969,1.4969,1.4968,1.4957,1.4957,1.4957,0,0,0,0,0,0,0,0,0,0,0,0,0,1.499,1.4992,1.4997,1.4987,1.4986,1.4989,1.4988,1.4988,1.497,1.4969,1.4969,1.4968,1.4957,1.4957,1.4957,1.4969,0,0,1.4957,1.4957,0,0,0,0,0,0,0,0,1.499,1.499,1.4988,1.4987,1.4986,1.498,1.4982,1.4982,1.497,1.4976,1.4968,1.4968,1.4965,1.4964,1.4964,1.4968,1.4968,1.4957,1.4957,1.4957,1.4957,0,0,0,0,0,0,0,1.499,1.499,1.4994,1.4988,1.4987,1.4981,1.498,1.4982,1.4973,1.4975,1.4974,1.4973,1.4964,1.4964,1.4963,1.4968,1.4957,1.4957,1.4957,1.4957,1.4977,1.4978,0,0,0,0,0,0,1.4992,1.4991,1.4994,1.4993,1.4987,1.4981,1.498,1.4982,1.4973,1.4971,1.4974,1.4972,1.4964,1.4963,1.4963,1.4973,1.4957,1.4957,1.4957,1.4977,1.4977,1.4978,0,0,0,0,0,0,1.4992,1.4993,1.4994,1.4992,1.4991,1.4982,1.4984,1.4982,1.4982,1.4972,1.497,1.4975,1.4963,1.4963,1.4967,1.4973,1.4957,1.4957,1.4976,1.4977,1.4978,1.4997,0,0,0,0,0,0,1.4992,1.4993,1.4999,1.4992,1.4992,1.5,1.4985,1.4983,1.4983,1.4981,1.4973,1.4971,1.4963,1.4967,1.4967,1.4973,1.4957,1.4976,1.4977,1.4977,1.4995,1.4998,1.5,0,0,0,0,0,1.4992,1.5005,1.4999,1.5,1.4999,1.5,1.5,1.4991,1.4983,1.4988,1.4981,1.4972,1.4972,1.4967,1.4967,1.4973,1.4975,1.4976,1.4977,1.4994,1.4997,1.5,0,0,0,0,0,0,1.5012,1.5004,1.4998,1.5009,1.5005,1.4997,1.5003,1.4995,1.4993,1.4992,1.4979,1.4978,1.4983,1.4978,1.4973,1.4982,1.4972,1.4973,1.4985,1.4988,1.499,1.4991,1.4958,0,0,0,0,0,1.5018,1.5022,1.5013,1.5024,1.5022,1.5013,1.5013,1.5006,1.5002,1.5001,1.4994,1.499,1.4988,1.4988,1.4987,1.4995,1.4991,1.4998,1.5001,1.5003,1.5004,1.5004,1.5007,1.4981,1.4981,1.4981,0,0,1.503,1.5026,1.5029,1.5027,1.5024,1.5026,1.5012,1.5015,1.5016,1.5001,1.5004,1.4999,1.4992,1.4998,1.5,1.4994,1.501,1.5004,1.5006,1.5006,1.5006,1.5008,1.501,1.4982,1.4982,1.4982,0,0,1.5052,1.505,1.5057,1.5054,1.5049,1.5042,1.5044,1.5037,1.5033,1.5036,1.5023,1.5023,1.5022,1.5017,1.5015,1.5032,1.5022,1.5032,1.5044,1.5045,1.5047,1.5048,1.5052,1.5054,1.5033,1.5033,1.5033,0,1.5067,1.5071,1.5062,1.5065,1.5063,1.505,1.5055,1.5052,1.5047,1.5045,1.504,1.5036,1.5031,1.5034,1.5038,1.5037,1.5036,1.5032,1.5047,1.5049,1.505,1.5054,1.5056,1.5034,1.5034,1.5034,1.5033,0,1.5088,1.5091,1.5097,1.5092,1.5091,1.5095,1.5085,1.5085,1.5077,1.507,1.5072,1.5065,1.5061,1.5061,1.5054,1.5061,1.5058,1.505,1.5039,1.5054,1.5057,1.5058,1.5035,1.5035,1.5035,1.5034,0,0,1.5124,1.5112,1.5114,1.511,1.5103,1.5104,1.5106,1.5102,1.5102,1.5098,1.5098,1.5096,1.5088,1.5085,1.5077,1.5078,1.5088,1.5069,1.5069,1.5071,1.5094,1.5099,1.5101,1.5082,1.5082,1.5083,1.5093,0,1.5143,1.5147,1.5138,1.5144,1.5144,1.513,1.5132,1.5126,1.512,1.5117,1.5109,1.5107,1.5098,1.5096,1.5096,1.5087,1.5093,1.5086,1.508,1.508,1.5081,1.5103,1.5109,1.5119,1.5095,1.5095,1.5095,0,1.5166,1.5163,1.5169,1.5159,1.5158,1.516,1.5154,1.5154,1.5146,1.514,1.5136,1.5126,1.5125,1.5115,1.5113,1.5109,1.5105,1.51,1.51,1.5099,1.5088,1.51,1.5123,1.5124,1.5097,1.5097,1.5097,0,1.5188,1.5186,1.5188,1.5186,1.5174,1.5176,1.5171,1.5162,1.516,1.5154,1.5152,1.5146,1.5143,1.5138,1.5125,1.512,1.5123,1.5113,1.5117,1.5117,1.5118,1.5118,1.5139,1.5118,1.5118,1.5118,1.5118,0,1.5209,1.5213,1.5198,1.5199,1.5202,1.519,1.5193,1.5186,1.5179,1.5177,1.5165,1.5163,1.5148,1.5144,1.5134,1.5132,1.5131,1.5125,1.5122,1.5126,1.5126,1.5123,1.5121,1.5118,1.5118,1.5118,1.5118,0,1.5235,1.5225,1.5226,1.5215,1.5212,1.5215,1.5204,1.5204,1.5195,1.5193,1.5192,1.5179,1.5173,1.5161,1.5152,1.5145,1.5145,1.5141,1.5148,1.5146,1.515,1.5149,1.5169,1.517,1.5149,1.515,1.515,0,1.5248,1.5251,1.5239,1.5238,1.5233,1.5231,1.5228,1.5215,1.5212,1.5202,1.5203,1.5196,1.5191,1.5182,1.5171,1.5163,1.5158,1.5165,1.5156,1.5159,1.5156,1.5155,1.5154,1.5167,1.5167,1.5167,1.5167,0,1.5272,1.5267,1.5264,1.5258,1.5255,1.525,1.5244,1.5243,1.5228,1.5225,1.522,1.5215,1.5206,1.5199,1.5189,1.5182,1.5171,1.517,1.517,1.5173,1.5177,1.5173,1.5152,1.517,1.5169,1.5169,1.5169,1.5169,1.5291,1.5291,1.5283,1.5279,1.5273,1.5267,1.5266,1.5257,1.5253,1.5244,1.5237,1.5231,1.5221,1.5207,1.52,1.5195,1.519,1.5191,1.519,1.5191,1.5191,1.5178,1.5193,1.5193,1.5193,1.5193,1.5193,0,1.5313,1.5306,1.5303,1.5295,1.5291,1.5282,1.5274,1.5271,1.5267,1.5259,1.5253,1.5245,1.5238,1.5225,1.5216,1.5214,1.5209,1.5212,1.5211,1.521,1.5197,1.5197,1.5216,1.5216,1.5216,1.5216,1.5216,1.5216,1.5324,1.5323,1.5317,1.5312,1.5305,1.5301,1.5297,1.529,1.5283,1.5276,1.527,1.5262,1.5251,1.5241,1.5233,1.5229,1.5226,1.523,1.5225,1.5213,1.5211,1.5209,1.5208,1.523,1.523,1.5237,1.5237,1.5237]}]]